Location: Unspecified
(38.9820°N, 0.0000°E)
Time: 21:44:31
(UTC+00:00)

Tiangong 2 - Pass Details

Date: 30 May 2019
Orbit: 376 x 388 km, 42.8° (Epoch: 25 June)

Event Time Altitude Azimuth Distance (km) Brightness Sun altitude
Rises 20:34:48 0° 288° (WNW) 2,239 6.2 -12.9°
Reaches altitude 10° 20:36:53 10° 284° (WNW) 1,384 4.9 -13.2°
Maximum altitude 20:39:56 53° 206° (SSW) 468 1.3 -13.6°
Enters shadow 20:41:11 30° 143° (SE) 709 1.8 -13.8°
